Back to catalog

RASSVET-3 1

AliveSciencePO
NORAD 68360·PAYLOAD·🇷🇺 Russia

Launched Mar 23, 2026 from Plesetsk Cosmodrome

Loading…

Next Passes (next 24 hours)

TLE

FreshSource: Space-Track

Epoch: Sep 14, 2026, 01:06 UTC

1 68360U 26061A   26257.04651742  .00002409  00000-0  11567-3 0  9997
2 68360  82.2874 281.4566 0002363  72.8846 287.2646 15.18414722 27051

Track RASSVET-3 1 in real time with AllMySat

Download on the App Store